KG1JAG Weather Reports


time (UTC)temp
C
wind
direction
speed
KPH
gust
KPH
rain 1hr
cm
rain 24hr
cm
rain mn
cm
humidity
%
barometer
mb
20260508093004 7 50 0.0 0.0 0.00 0.00 0.00 67 1020.0
20260508092504 7 50 0.0 0.0 0.00 0.00 0.00 65 1020.0
20260508092005 7 50 0.0 0.0 0.00 0.00 0.00 64 1020.0
20260508091504 7 50 0.0 0.0 0.00 0.00 0.00 64 1020.0
20260508091005 7 51 0.0 0.0 0.00 0.00 0.00 63 1020.0
20260508090505 8 51 0.0 0.0 0.00 0.00 0.00 62 1020.0
20260508090005 8 51 0.0 0.0 0.00 0.00 0.00 61 1020.0
20260508085504 8 50 0.0 0.0 0.00 0.00 0.00 60 1020.0
20260508085005 8 50 0.0 0.0 0.00 0.00 0.00 59 1020.0
20260508084505 8 60 1.6 1.6 0.00 0.00 0.00 58 1020.0
20260508084005 9 48 0.0 0.0 0.00 0.00 0.00 57 1020.0
20260508083505 9 48 0.0 0.0 0.00 0.00 0.00 57 1019.6
20260508083004 9 43 0.0 0.0 0.00 0.00 0.00 56 1019.6
20260508082505 9 53 1.6 1.6 0.00 0.00 0.00 56 1019.6
20260508082006 9 51 1.6 1.6 0.00 0.00 0.00 55 1019.3
20260508081507 10 55 0.0 0.0 0.00 0.00 0.00 55 1019.3
20260508081005 10 51 1.6 3.2 0.00 0.00 0.00 53 1019.3
20260508080504 10 56 1.6 1.6 0.00 0.00 0.00 54 1019.3
20260508080005 10 75 0.0 1.6 0.00 0.00 0.00 54 1019.3
20260508075505 10 68 3.2 4.8 0.00 0.00 0.00 54 1019.3
20260508075005 10 22 0.0 0.0 0.00 0.00 0.00 54 1019.3
20260508074505 10 67 3.2 4.8 0.00 0.00 0.00 54 1019.0
20260508074004 10 76 4.8 8.0 0.00 0.00 0.00 54 1019.0
20260508073505 10 50 3.2 3.2 0.00 0.00 0.00 55 1018.3
20260508073005 10 77 1.6 1.6 0.00 0.00 0.00 56 1018.3
20260508072504 10 54 1.6 1.6 0.00 0.00 0.00 58 1018.3
20260508072005 10 63 1.6 1.6 0.00 0.00 0.00 59 1018.3
20260508071505 10 42 1.6 1.6 0.00 0.00 0.00 59 1018.3
20260508071005 10 66 0.0 3.2 0.00 0.00 0.00 60 1017.9
20260508070505 10 47 1.6 1.6 0.00 0.00 0.00 60 1017.9
20260508070005 10 20 0.0 1.6 0.00 0.00 0.00 63 1017.9
20260508065504 10 29 1.6 1.6 0.00 0.00 0.00 64 1017.9
20260508065004 9 46 0.0 0.0 0.00 0.00 0.00 68 1017.9
20260508064504 9 47 0.0 0.0 0.00 0.00 0.00 69 1017.9
20260508064004 9 48 0.0 0.0 0.00 0.00 0.00 70 1017.9
20260508063505 9 36 0.0 0.0 0.00 0.00 0.00 72 1017.9
20260508063004 9 50 0.0 0.0 0.00 0.00 0.00 72 1017.9
20260508062505 10 57 3.2 3.2 0.00 0.00 0.00 72 1017.9
20260508062005 10 48 0.0 0.0 0.00 0.00 0.00 73 1017.6
20260508061505 10 47 1.6 1.6 0.00 0.00 0.00 73 1017.6
20260508061004 10 54 0.0 0.0 0.00 0.00 0.00 73 1017.6
20260508060508 10 58 1.6 1.6 0.00 0.00 0.00 73 1017.6
20260508060005 10 68 3.2 4.8 0.00 0.00 0.00 74 1017.6
20260508055504 10 57 1.6 1.6 0.00 0.00 0.00 74 1017.6
20260508055004 10 72 3.2 4.8 0.00 0.00 0.00 76 1017.6
20260508054504 10 61 1.6 1.6 0.00 0.00 0.00 76 1017.6
20260508054004 10 63 1.6 1.6 0.00 0.00 0.00 77 1017.6
20260508053504 10 78 0.0 1.6 0.00 0.00 0.00 77 1017.3
20260508053005 10 59 0.0 4.8 0.00 0.00 0.00 77 1017.3
20260508052504 10 57 0.0 0.0 0.00 0.00 0.00 77 1017.3
20260508052005 10 50 0.0 0.0 0.00 0.00 0.00 77 1017.3
20260508051504 10 59 1.6 1.6 0.00 0.00 0.00 77 1017.3
20260508051005 10 61 0.0 0.0 0.00 0.00 0.00 76 1017.3
20260508050504 10 51 0.0 0.0 0.00 0.00 0.00 76 1017.3
20260508050005 10 56 1.6 1.6 0.00 0.00 0.00 76 1017.3
20260508045505 10 56 1.6 3.2 0.00 0.00 0.00 76 1017.3
20260508045005 10 72 1.6 1.6 0.00 0.00 0.00 76 1017.3
20260508044504 10 66 0.0 1.6 0.00 0.00 0.00 76 1017.3
20260508044004 10 61 1.6 1.6 0.00 0.00 0.00 75 1017.3
20260508043504 10 55 1.6 1.6 0.00 0.00 0.00 75 1017.3
20260508043004 10 53 0.0 1.6 0.00 0.00 0.00 75 1017.3
20260508042504 10 62 1.6 1.6 0.00 0.00 0.00 74 1017.3
20260508042004 10 68 3.2 4.8 0.00 0.00 0.00 74 1017.3
20260508041505 10 67 1.6 1.6 0.00 0.00 0.00 73 1017.3
20260508041004 10 57 1.6 1.6 0.00 0.00 0.00 73 1017.3
20260508040505 11 73 3.2 3.2 0.00 0.00 0.00 73 1017.3
20260508040005 11 44 0.0 0.0 0.00 0.00 0.05 73 1017.3
20260508035504 11 50 3.2 3.2 0.00 0.00 0.05 72 1017.3
20260508035005 11 70 1.6 1.6 0.00 0.00 0.05 72 1017.3
20260508034505 11 61 3.2 4.8 0.00 0.00 0.05 72 1017.3
20260508034004 11 58 1.6 1.6 0.00 0.00 0.05 72 1017.3
20260508033504 11 62 1.6 3.2 0.00 0.00 0.05 72 1017.3
20260508033004 11 64 1.6 1.6 0.00 0.00 0.05 72 1017.3
20260508032505 11 43 1.6 3.2 0.00 0.00 0.05 72 1017.3
20260508032004 11 61 0.0 1.6 0.00 0.00 0.05 71 1017.3
20260508031506 11 68 0.0 1.6 0.00 0.00 0.05 71 1017.3
20260508031005 11 32 0.0 0.0 0.00 0.00 0.05 71 1017.3
20260508030504 11 58 1.6 3.2 0.00 0.00 0.05 71 1017.3
20260508030005 11 67 1.6 3.2 0.00 0.00 0.05 71 1017.3
20260508025504 11 56 1.6 1.6 0.00 0.00 0.05 70 1017.3
20260508025005 11 90 1.6 3.2 0.00 0.00 0.05 70 1017.3
20260508024504 11 56 1.6 3.2 0.00 0.00 0.05 69 1017.3
20260508023539 11 81 1.6 1.6 0.00 0.00 0.05 69 1016.9
20260508023006 12 66 0.0 0.0 0.00 0.00 0.05 67 1016.9
20260508022504 12 58 1.6 3.2 0.00 0.00 0.05 67 1016.9
20260508022004 12 64 0.0 1.6 0.00 0.00 0.05 67 1016.9
20260508021505 12 64 1.6 4.8 0.00 0.00 0.05 66 1016.9
20260508021004 12 70 1.6 3.2 0.00 0.00 0.05 66 1016.9
20260508020504 12 57 1.6 1.6 0.00 0.00 0.05 65 1016.9
20260508020005 12 83 1.6 3.2 0.00 0.00 0.05 65 1016.6
20260508015505 12 57 1.6 6.4 0.00 0.00 0.05 64 1016.6
20260508015005 12 37 1.6 3.2 0.00 0.00 0.05 64 1016.6
20260508014504 12 41 1.6 1.6 0.00 0.00 0.05 64 1016.6
20260508014004 12 59 1.6 1.6 0.00 0.00 0.05 63 1016.6
20260508013505 12 79 0.0 0.0 0.00 0.00 0.05 63 1016.6
20260508013005 13 35 0.0 1.6 0.00 0.00 0.05 62 1016.6
20260508012504 13 45 1.6 3.2 0.00 0.00 0.05 62 1016.6
20260508012004 13 57 1.6 1.6 0.00 0.00 0.05 62 1016.6
20260508011505 13 85 1.6 3.2 0.00 0.00 0.05 61 1016.6
20260508011005 13 24 0.0 3.2 0.00 0.00 0.05 61 1016.3
20260508010505 13 64 3.2 3.2 0.00 0.00 0.05 60 1016.3
20260508010005 13 57 1.6 1.6 0.00 0.00 0.05 60 1015.9
20260508005505 13 80 1.6 3.2 0.00 0.00 0.05 59 1015.9
20260508005004 13 57 3.2 4.8 0.00 0.00 0.05 59 1015.9
20260508004505 13 89 3.2 4.8 0.00 0.00 0.05 58 1015.9
20260508004004 13 270 3.2 3.2 0.00 0.00 0.05 58 1015.9
20260508003505 13 300 1.6 3.2 0.00 0.00 0.05 58 1015.2
20260508003005 13 57 1.6 1.6 0.00 0.00 0.05 57 1015.2
20260508002504 14 58 3.2 6.4 0.00 0.00 0.05 56 1015.2
20260508002004 14 252 0.0 1.6 0.00 0.00 0.05 56 1015.2
20260508001506 14 348 1.6 1.6 0.00 0.00 0.05 55 1015.2
20260508001005 14 350 1.6 1.6 0.00 0.00 0.05 55 1015.2
20260508000505 14 92 3.2 3.2 0.00 0.00 0.05 54 1015.2
20260508000004 14 91 3.2 4.8 0.00 0.00 0.05 54 1014.6
20260507235504 15 65 1.6 1.6 0.00 0.00 0.05 54 1014.6
20260507235006 15 37 4.8 6.4 0.00 0.00 0.05 53 1014.6
20260507234505 15 272 4.8 6.4 0.00 0.00 0.05 53 1014.6
20260507234004 15 252 4.8 9.7 0.00 0.00 0.05 52 1014.6
20260507233505 15 131 3.2 4.8 0.00 0.00 0.05 51 1014.6
20260507233004 15 31 3.2 6.4 0.00 0.00 0.05 50 1014.6
20260507232504 16 270 4.8 4.8 0.00 0.00 0.05 49 1014.6
20260507232004 16 74 3.2 3.2 0.00 0.00 0.05 48 1014.6
20260507231504 16 30 3.2 3.2 0.00 0.00 0.05 47 1014.6
20260507231004 17 50 1.6 4.8 0.00 0.00 0.05 47 1014.2
20260507230505 17 264 4.8 4.8 0.00 0.00 0.05 46 1014.2
20260507230005 17 278 3.2 3.2 0.00 0.00 0.05 46 1014.2
20260507225505 17 53 1.6 4.8 0.00 0.00 0.05 45 1014.2
20260507225005 18 51 1.6 1.6 0.00 0.00 0.05 43 1014.2
20260507224505 18 263 9.7 9.7 0.00 0.00 0.05 42 1014.2
20260507224005 18 31 4.8 4.8 0.00 0.00 0.05 41 1014.2
20260507223505 19 223 1.6 1.6 0.00 0.00 0.05 40 1014.2
20260507223004 19 50 1.6 1.6 0.00 0.00 0.05 39 1014.2
20260507222504 20 268 3.2 4.8 0.00 0.00 0.05 36 1014.2
20260507222006 21 277 6.4 6.4 0.00 0.00 0.05 26 1014.2
20260507221504 22 35 3.2 4.8 0.00 0.00 0.05 25 1014.2
20260507221006 21 55 1.6 3.2 0.00 0.00 0.05 27 1014.2
20260507220504 21 55 1.6 1.6 0.00 0.00 0.05 26 1014.2
20260507220004 21 26 1.6 1.6 0.00 0.00 0.05 26 1013.9
20260507215505 21 43 0.0 0.0 0.00 0.00 0.05 27 1013.9
20260507215004 21 299 4.8 8.0 0.00 0.00 0.05 26 1013.9
20260507214505 21 24 1.6 3.2 0.00 0.00 0.05 27 1014.2
20260507214004 22 46 0.0 0.0 0.00 0.00 0.05 26 1014.2
20260507213504 21 60 3.2 4.8 0.00 0.00 0.05 26 1014.2
20260507213005 22 41 1.6 1.6 0.00 0.00 0.05 26 1014.2
20260507212505 21 70 3.2 4.8 0.00 0.00 0.05 26 1014.2
20260507212005 22 80 0.0 0.0 0.00 0.00 0.05 26 1014.2
20260507211505 21 53 3.2 4.8 0.00 0.00 0.05 26 1014.2
20260507211004 21 55 1.6 3.2 0.00 0.00 0.05 25 1014.2
20260507210505 21 17 1.6 1.6 0.00 0.00 0.05 26 1014.2
20260507210005 21 72 4.8 6.4 0.00 0.00 0.05 27 1014.2
20260507205504 22 51 1.6 1.6 0.00 0.00 0.05 25 1014.2
20260507205005 22 61 1.6 1.6 0.00 0.00 0.05 25 1014.2
20260507204504 22 73 4.8 6.4 0.00 0.00 0.05 24 1014.2
20260507204005 22 52 3.2 3.2 0.00 0.00 0.05 24 1014.2
20260507203504 22 62 3.2 3.2 0.00 0.00 0.05 25 1014.2
20260507203005 21 61 4.8 9.7 0.00 0.00 0.05 25 1014.2
20260507202504 22 39 1.6 1.6 0.00 0.00 0.05 25 1014.2
20260507202005 21 74 1.6 1.6 0.00 0.00 0.05 25 1014.2
20260507201504 21 55 1.6 3.2 0.00 0.00 0.05 25 1014.2
20260507201005 21 53 6.4 8.0 0.00 0.00 0.05 26 1014.2
20260507200505 22 67 1.6 4.8 0.00 0.00 0.05 25 1014.2
20260507200004 22 11 1.6 1.6 0.00 0.00 0.05 26 1014.2
20260507195505 22 59 3.2 3.2 0.00 0.00 0.05 26 1014.2
20260507195004 22 65 3.2 3.2 0.00 0.00 0.05 24 1014.2
20260507194504 22 44 3.2 3.2 0.00 0.00 0.05 25 1014.2
20260507194005 22 71 3.2 3.2 0.00 0.00 0.05 25 1014.2
20260507193504 22 49 1.6 1.6 0.00 0.00 0.05 25 1014.6
20260507193004 22 50 4.8 6.4 0.00 0.00 0.05 26 1014.6
20260507192504 22 57 0.0 0.0 0.00 0.00 0.05 25 1014.6
20260507192004 21 57 1.6 1.6 0.00 0.00 0.05 25 1014.9
20260507191504 22 60 3.2 4.8 0.00 0.00 0.05 26 1014.9
20260507191004 21 46 4.8 9.7 0.00 0.00 0.05 26 1014.6
20260507190504 21 54 4.8 6.4 0.00 0.00 0.05 26 1014.6
20260507190005 21 59 1.6 1.6 0.00 0.00 0.05 26 1014.9
20260507185504 21 70 1.6 1.6 0.00 0.00 0.05 27 1014.9
20260507185005 21 21 0.0 3.2 0.00 0.00 0.05 27 1014.9
20260507184505 21 62 3.2 4.8 0.00 0.00 0.05 25 1015.2
20260507184005 21 69 1.6 4.8 0.00 0.00 0.05 26 1015.2
20260507183505 20 54 3.2 4.8 0.00 0.00 0.05 26 1015.2
20260507183004 21 32 1.6 3.2 0.00 0.00 0.05 27 1015.2
20260507182504 21 54 3.2 3.2 0.00 0.00 0.05 26 1015.2
20260507182005 21 58 1.6 3.2 0.00 0.00 0.05 26 1015.2
20260507181505 21 66 4.8 4.8 0.00 0.00 0.05 26 1015.2
20260507181004 20 53 0.0 0.0 0.00 0.00 0.05 28 1015.9
20260507180505 20 65 3.2 4.8 0.00 0.00 0.05 28 1015.9
20260507180005 21 22 1.6 1.6 0.00 0.00 0.05 28 1016.3
20260507175504 21 73 3.2 6.4 0.00 0.00 0.05 28 1016.3
20260507175004 21 44 1.6 3.2 0.00 0.00 0.05 29 1016.3
20260507174504 21 78 1.6 3.2 0.00 0.00 0.05 28 1016.6
20260507174005 20 69 1.6 1.6 0.00 0.00 0.05 31 1016.6
20260507173504 18 331 3.2 6.4 0.00 0.00 0.05 32 1016.6
20260507173004 18 264 6.4 6.4 0.00 0.00 0.05 33 1016.6
20260507172505 19 35 1.6 4.8 0.00 0.00 0.05 30 1016.3
20260507172004 19 59 3.2 3.2 0.00 0.00 0.05 30 1016.3
20260507171506 18 40 1.6 4.8 0.00 0.00 0.05 31 1016.3
20260507171004 18 51 0.0 1.6 0.00 0.00 0.05 31 1016.6
20260507170505 18 55 4.8 4.8 0.00 0.00 0.05 30 1016.6
20260507170005 18 330 0.0 1.6 0.00 0.00 0.05 31 1016.6
20260507165504 18 62 0.0 1.6 0.00 0.00 0.05 32 1016.6
20260507165006 18 283 4.8 4.8 0.00 0.00 0.05 34 1016.6
20260507164016 17 60 1.6 1.6 0.00 0.00 0.05 35 1017.3
20260507163504 16 12 3.2 3.2 0.00 0.00 0.05 37 1017.3
20260507163005 16 22 1.6 3.2 0.00 0.00 0.05 37 1017.3
20260507162506 15 270 3.2 3.2 0.00 0.00 0.05 39 1017.3
20260507162004 15 61 4.8 6.4 0.00 0.00 0.05 42 1017.3
20260507161505 15 38 0.0 1.6 0.00 0.00 0.05 40 1017.3
20260507161004 14 53 1.6 1.6 0.00 0.00 0.05 44 1017.3
20260507160509 14 67 3.2 4.8 0.00 0.00 0.05 43 1017.3
20260507160004 15 61 1.6 3.2 0.00 0.00 0.05 43 1017.6
20260507155508 14 56 1.6 1.6 0.00 0.00 0.05 42 1017.6
20260507155005 14 12 3.2 3.2 0.00 0.00 0.05 44 1017.6
20260507154504 14 38 1.6 3.2 0.00 0.00 0.05 44 1017.6
20260507154005 13 46 1.6 1.6 0.00 0.00 0.05 45 1017.6
20260507153507 14 44 1.6 1.6 0.00 0.00 0.05 46 1017.6
20260507153007 14 54 0.0 1.6 0.00 0.00 0.05 47 1017.6
20260507152507 13 46 1.6 1.6 0.00 0.00 0.05 48 1017.9
20260507152005 13 48 0.0 1.6 0.00 0.00 0.05 49 1017.9
20260507151504 13 57 1.6 1.6 0.00 0.00 0.05 48 1017.9
20260507151005 13 3 1.6 1.6 0.00 0.00 0.05 48 1017.9
20260507150505 13 60 0.0 0.0 0.00 0.00 0.05 50 1017.9
20260507150005 13 64 3.2 4.8 0.00 0.00 0.05 48 1017.9
20260507145504 13 47 1.6 1.6 0.00 0.00 0.05 50 1017.9
20260507145006 13 51 1.6 1.6 0.00 0.00 0.05 51 1017.9
20260507144505 13 56 1.6 1.6 0.00 0.00 0.05 52 1018.3
20260507144005 13 53 1.6 1.6 0.00 0.00 0.05 53 1018.3
20260507143505 12 51 1.6 1.6 0.00 0.00 0.05 57 1018.3
20260507143005 12 50 0.0 1.6 0.00 0.00 0.05 56 1018.3
20260507142507 12 51 0.0 0.0 0.00 0.00 0.05 56 1018.3
20260507142004 12 54 0.0 1.6 0.00 0.00 0.05 57 1018.3
20260507141506 12 51 0.0 1.6 0.00 0.00 0.05 57 1018.3
20260507141006 12 69 1.6 3.2 0.00 0.00 0.05 57 1018.3
20260507140504 12 57 0.0 1.6 0.00 0.00 0.05 57 1018.3
20260507140006 12 43 0.0 0.0 0.00 0.00 0.05 57 1019.0
20260507135504 12 46 0.0 1.6 0.00 0.00 0.05 58 1019.0
20260507135004 12 47 0.0 1.6 0.00 0.00 0.05 60 1019.0
20260507134506 12 47 1.6 3.2 0.00 0.00 0.05 60 1019.0
20260507134005 12 63 1.6 1.6 0.00 0.00 0.05 60 1019.0
20260507133506 12 53 0.0 0.0 0.00 0.00 0.05 59 1019.0
20260507133005 12 62 1.6 3.2 0.00 0.00 0.05 66 1019.0
20260507132505 12 69 3.2 3.2 0.00 0.00 0.05 58 1019.0
20260507132004 12 52 1.6 1.6 0.00 0.00 0.05 59 1019.0
20260507131505 12 49 3.2 3.2 0.00 0.00 0.05 60 1019.0
20260507131004 12 48 1.6 1.6 0.00 0.00 0.05 60 1019.0
20260507130505 12 66 3.2 3.2 0.00 0.00 0.05 60 1019.0
20260507130007 12 58 1.6 3.2 0.00 0.00 0.05 61 1019.0
20260507125504 12 53 1.6 1.6 0.00 0.00 0.05 62 1019.0
20260507125005 12 45 0.0 1.6 0.00 0.00 0.05 61 1019.0
20260507124505 12 55 0.0 0.0 0.00 0.00 0.05 63 1019.0
20260507124005 12 62 3.2 3.2 0.00 0.00 0.05 63 1019.0
20260507123505 11 57 1.6 1.6 0.00 0.00 0.05 63 1019.0
20260507123005 12 53 1.6 1.6 0.00 0.00 0.05 64 1019.0
20260507122505 12 62 1.6 3.2 0.00 0.00 0.05 63 1018.3
20260507122005 12 49 1.6 1.6 0.00 0.00 0.05 65 1018.3
20260507121505 12 47 1.6 1.6 0.00 0.00 0.05 68 1018.3
20260507121004 12 53 1.6 3.2 0.00 0.00 0.05 69 1017.9
20260507120504 12 47 1.6 1.6 0.00 0.00 0.05 77 1017.9
20260507120005 12 53 1.6 1.6 0.00 0.00 0.05 84 1018.3
20260507115505 12 56 1.6 1.6 0.00 0.00 0.05 84 1018.3
20260507115004 12 56 1.6 1.6 0.00 0.00 0.05 84 1018.3
20260507114504 12 48 1.6 1.6 0.00 0.00 0.05 85 1017.9
20260507114004 12 50 0.0 0.0 0.00 0.00 0.05 87 1017.9
20260507113504 12 54 0.0 1.6 0.00 0.00 0.05 86 1018.3
20260507113005 12 51 0.0 0.0 0.00 0.00 0.05 87 1018.3
20260507112504 12 54 1.6 1.6 0.00 0.00 0.05 88 1018.3
20260507112006 12 54 0.0 0.0 0.00 0.00 0.05 88 1018.3
20260507111506 12 55 1.6 1.6 0.00 0.00 0.05 88 1018.3
20260507111004 12 54 1.6 1.6 0.00 0.00 0.05 88 1017.9
20260507110504 12 53 0.0 0.0 0.00 0.00 0.05 89 1017.9
20260507110005 12 52 0.0 0.0 0.00 0.00 0.05 88 1017.9
20260507105507 12 52 0.0 0.0 0.00 0.00 0.05 89 1017.9
20260507105004 12 49 0.0 0.0 0.00 0.00 0.05 89 1017.9
20260507104504 12 51 0.0 0.0 0.00 0.00 0.05 90 1017.9
20260507104005 12 51 0.0 0.0 0.00 0.00 0.05 88 1017.9
20260507103505 12 47 0.0 0.0 0.00 0.00 0.05 88 1017.6
20260507103006 12 47 0.0 0.0 0.00 0.00 0.05 89 1017.6
20260507102505 12 43 0.0 1.6 0.00 0.00 0.05 89 1017.3
20260507102006 12 54 0.0 0.0 0.00 0.00 0.05 87 1017.3
20260507101504 12 52 0.0 0.0 0.00 0.00 0.05 87 1017.3
20260507101004 12 52 0.0 0.0 0.00 0.00 0.05 89 1017.3
20260507100505 12 54 1.6 1.6 0.00 0.00 0.05 88 1017.3
20260507100005 12 52 0.0 0.0 0.00 0.00 0.05 88 1017.3
20260507095505 12 52 0.0 0.0 0.00 0.00 0.05 87 1017.3
20260507095004 12 51 0.0 0.0 0.00 0.00 0.05 88 1017.3
20260507094505 12 53 1.6 1.6 0.00 0.00 0.05 88 1017.3
20260507094005 11 54 0.0 0.0 0.00 0.00 0.05 89 1017.3
20260507093506 11 49 1.6 1.6 0.00 0.00 0.05 89 1017.3